BLOCK DM-SL DEB, 45041

Orbit data source: Space-Track

BLOCK DM-SL DEB, 45041 is space debris in GEO originally from a launch on Tue, 24 Dec 2019 UTC launched from the Tyuratam Missile And Space Complex (TTMTR). Debris objects in space refer to the collection of defunct objects orbiting the Earth. Examples of debris include non-operational satellites, rocket bodies, and fragments generated from explosions, collisions, or faulty payload assembly.

Not visible in the next 10 days
Identifier
45041, 2019-095C
Orbit
GEO
Last TLE update
18 hours ago
Origin
Manufacturer
RKKE
Mission
Spacecraft
Bus & Motor
SOZ, Unknown motor
Mass
56 kg wet, 56 kg dry
Launch date (UTC)
2019-12-24 (5 years ago)
Launch vehicle
Unknown
Launch site
Tyuratam Missile And Space Complex (TTMTR)
Object type
Payload
Rocket body
Debris
Shape & HBR
Cyl, 1.1 m
Radar Cross Section
0.660 m²

Expand to show TLE details & history

TLE from 18 hours ago
0 BLOCK DM-SL DEB
1 45041U 19095C   25129.14279807 -.00000002  00000-0  00000+0 0  9997
2 45041   4.3463  78.5547 0451759   7.7729 352.7995  1.03020160 20178
Epoch: 2025-05-09T03:25Z
Definitive object data (Epoch: 2025-05-09T03:25:37.753Z)
Latitude
-0.00002°
Longitude
159.8538°
Altitude
33,176.303 km
Speed
3.245 km/s
True Right ascension
05h 13m 51s
True Declination
0° 00' 00"
Sunlit
Object was in daylight at TLE epoch
Visualization TLE readout
Latitude
-4.32247°
Longitude
66.25192°
Altitude
35,314.461 km
Speed
3.082 km/s
Apparent Right ascension
22h 32m 42s
Apparent Declination
-9° 43' 43"
Sunlit
Object is in daylight
Visualization observer readout
Local Sidereal Time
05:08:30
Azimuth
268.162° W
Elevation
-13.062°
Doppler factor
1
Orbital elements
Apogee altitude
36,905.237 km
Perigee altitude
33,163.541 km
Semi-major axis
41,412.526 km
Eccentricity
0.0451759
Inclination
4.3463°
RAAN
78.5547°
Arg. of periapsis
7.7729°
True anomaly
352.11224°
Mean anomaly
352.7995°
Eccentric anomaly
352.45985°
Mean motion
0.25754 °/min
BSTAR
Unknown
Orbital period
1397.84 mins
Loading historical data...
45041 neighbors
Loading maneuver chart data...
Loading SW <> Apogee altitude chart data...
Loading historical data...
Loading historical data...
Loading historical data...
Loading historical data...
Loading historical data...
Loading historical data...
Loading historical data...
Other satellites on launch #95 in the year 2019 (2019-12-24 UTC)

BLOCK DM-SL DEB Visibility forecast

Observer location: undefined°, undefined°

BLOCK DM-SL DEB is not visible in the next 10 days
Span
Click to sort rows by Start time (UTC) header in descending order
Start Az.
Max El. time (UTC)
Max El. Az.
Max El.
End time (UTC)
End Az.
|